Regional Weather Roundup
Issued by NWS

Home | Current Version | Previous Version | Text Only | Print | Product List | Glossary On
Versions: 1 2 3 4 5 6 7 8 9 10 11 12 13 14 15 16 17 18 19 20 21 22 23 24 25 26 27 28 29 30 31 32 33 34 35 36 37 38 39 40 41 42 43 44 45 46 47 48 49 50
000
ASCA42 TJSJ 060910
RWRPR
PUERTO RICO/U.S. VIRGIN ISLANDS HOURLY WEATHER ROUNDUP
NATIONAL WEATHER SERVICE SAN JUAN PR
500 AM AST MON JUL 06 2015

PRZ001-004-061000-
PUERTO RICO

CITY           SKY/WX    TMP DP  RH WIND       PRES   REMARKS
SAN JUAN LMM   PTCLDY    79  75  89 CALM      30.05S
$$

PRZ006-007-061000-
U.S. VIRGIN ISLANDS

CITY           SKY/WX    TMP DP  RH WIND       PRES   REMARKS
CHARLOTTE AMA  CLOUDY    81  73  78 E8        30.04R
CHRISTIANSTED  CLEAR     79  72  78 NE8       30.04R
$$

HOURLY WEATHER ROUNDUP FOR THE NEWS MEDIA

CITY           SKY/WX    TMP DP  RH WIND       PRES   REMARKS
ORLANDO        PTCLDY    73  72  96 W5        30.13R
NEW YORK       MOCLDY    69  65  86 SW6       30.15S
NEWARK         MOCLDY    71  67  87 SW7       30.14S
CHICAGO        PTCLDY    66  62  87 W3        30.01F
HARTFORD       CLEAR     61  60  97 CALM      30.14R FOG
BOSTON         PTCLDY    69  61  75 NW7       30.14S
DALLAS         MOCLDY    81  72  74 S16G24    29.96S
PHILADELPHIA   MOCLDY    72  68  87 E5        30.14S
LOS ANGELES    CLOUDY    64  59  83 SW5       30.03R
WASHINGTON DC  CLOUDY    72  72 100 CALM      30.10S


USA.gov is the U.S. government's official web portal to all federal, state and local government web resources and services.